TimeCDT,TemperatureF,Dew PointF,Humidity,Sea Level PressureIn,VisibilityMPH,Wind Direction,Wind SpeedMPH,Gust SpeedMPH,PrecipitationIn,Events,Conditions,WindDirDegrees,DateUTC
12:15 AM,59.0,42.8,55,29.78,10.0,NNE,12.7,-,N/A,,Clear,20,2013-04-29 05:15:00
12:35 AM,59.0,41.0,51,29.78,10.0,NNE,12.7,-,N/A,,Clear,30,2013-04-29 05:35:00
12:55 AM,59.0,41.0,51,29.78,10.0,NNE,13.8,-,N/A,,Clear,20,2013-04-29 05:55:00
1:15 AM,59.0,41.0,51,29.78,10.0,NNE,11.5,-,N/A,,Clear,20,2013-04-29 06:15:00
1:35 AM,57.2,41.0,55,29.77,10.0,NE,11.5,-,N/A,,Clear,40,2013-04-29 06:35:00
1:55 AM,59.0,41.0,51,29.76,10.0,NE,9.2,-,N/A,,Partly Cloudy,40,2013-04-29 06:55:00
2:15 AM,57.2,41.0,55,29.76,10.0,NE,11.5,-,N/A,,Scattered Clouds,40,2013-04-29 07:15:00
2:35 AM,57.2,42.8,59,29.76,10.0,NE,10.4,-,N/A,,Partly Cloudy,40,2013-04-29 07:35:00
2:55 AM,57.2,42.8,59,29.77,10.0,North,11.5,-,N/A,,Clear,10,2013-04-29 07:55:00
3:15 AM,57.2,42.8,59,29.76,10.0,North,15.0,-,N/A,,Partly Cloudy,10,2013-04-29 08:15:00
3:35 AM,59.0,42.8,55,29.77,10.0,North,13.8,20.7,N/A,,Partly Cloudy,360,2013-04-29 08:35:00
3:55 AM,57.2,41.0,55,29.79,10.0,North,11.5,-,N/A,,Scattered Clouds,350,2013-04-29 08:55:00
4:15 AM,57.2,41.0,55,29.76,10.0,NNE,19.6,24.2,N/A,,Mostly Cloudy,20,2013-04-29 09:15:00
4:35 AM,55.4,41.0,58,29.79,10.0,North,15.0,20.7,N/A,,Scattered Clouds,360,2013-04-29 09:35:00
4:55 AM,55.4,41.0,58,29.76,10.0,NE,11.5,-,N/A,,Partly Cloudy,40,2013-04-29 09:55:00
5:15 AM,57.2,41.0,55,29.76,10.0,NE,10.4,-,N/A,,Partly Cloudy,40,2013-04-29 10:15:00
5:35 AM,55.4,42.8,63,29.75,10.0,NE,11.5,-,N/A,,Partly Cloudy,40,2013-04-29 10:35:00
5:55 AM,55.4,42.8,63,29.75,10.0,NE,11.5,-,N/A,,Partly Cloudy,40,2013-04-29 10:55:00
6:15 AM,55.4,42.8,63,29.80,10.0,NNW,11.5,-,N/A,,Partly Cloudy,330,2013-04-29 11:15:00
6:35 AM,55.4,44.6,67,29.80,10.0,North,9.2,-,N/A,,Clear,350,2013-04-29 11:35:00
6:55 AM,53.6,44.6,72,29.80,10.0,North,9.2,-,N/A,,Clear,350,2013-04-29 11:55:00
7:15 AM,51.8,44.6,76,29.80,10.0,North,11.5,-,N/A,,Clear,360,2013-04-29 12:15:00
7:35 AM,53.6,44.6,72,29.80,10.0,North,9.2,-,N/A,,Clear,350,2013-04-29 12:35:00
7:55 AM,53.6,44.6,72,29.81,10.0,North,6.9,-,N/A,,Clear,360,2013-04-29 12:55:00
8:15 AM,53.6,46.4,77,29.80,10.0,NNE,11.5,16.1,N/A,,Clear,20,2013-04-29 13:15:00
8:35 AM,53.6,46.4,77,29.81,10.0,NNE,10.4,-,N/A,,Clear,20,2013-04-29 13:35:00
8:55 AM,55.4,46.4,72,29.80,10.0,NNE,11.5,-,N/A,,Clear,20,2013-04-29 13:55:00
9:15 AM,55.4,46.4,72,29.78,10.0,NE,15.0,-,N/A,,Clear,50,2013-04-29 14:15:00
9:35 AM,57.2,46.4,67,29.77,10.0,ENE,11.5,-,N/A,,Clear,60,2013-04-29 14:35:00
9:55 AM,59.0,48.2,67,29.78,10.0,East,11.5,-,N/A,,Clear,80,2013-04-29 14:55:00
10:15 AM,59.0,48.2,67,29.77,10.0,ENE,10.4,-,N/A,,Clear,60,2013-04-29 15:15:00
10:35 AM,59.0,48.2,67,29.76,10.0,East,10.4,-,N/A,,Clear,80,2013-04-29 15:35:00
10:55 AM,60.8,48.2,63,29.76,10.0,East,8.1,-,N/A,,Clear,80,2013-04-29 15:55:00
11:15 AM,62.6,50.0,63,29.74,10.0,East,10.4,-,N/A,,Clear,100,2013-04-29 16:15:00
11:35 AM,64.4,50.0,59,29.74,10.0,East,8.1,-,N/A,,Clear,90,2013-04-29 16:35:00
11:55 AM,64.4,50.0,59,29.75,10.0,NE,9.2,-,N/A,,Clear,50,2013-04-29 16:55:00
12:15 PM,66.2,51.8,60,29.74,10.0,NE,6.9,-,N/A,,Clear,40,2013-04-29 17:15:00
12:35 PM,68.0,50.0,52,29.74,10.0,Calm,Calm,-,N/A,,Clear,0,2013-04-29 17:35:00
12:55 PM,69.8,51.8,53,29.72,10.0,East,5.8,-,N/A,,Clear,90,2013-04-29 17:55:00
1:15 PM,71.6,50.0,46,29.71,10.0,East,3.5,-,N/A,,Clear,90,2013-04-29 18:15:00
1:35 PM,73.4,50.0,44,29.69,10.0,East,5.8,-,N/A,,Clear,80,2013-04-29 18:35:00
1:55 PM,75.2,48.2,38,29.69,10.0,SSE,9.2,-,N/A,,Clear,150,2013-04-29 18:55:00
2:15 PM,77.0,46.4,34,29.68,10.0,South,6.9,-,N/A,,Clear,180,2013-04-29 19:15:00
2:35 PM,77.0,46.4,34,29.67,10.0,South,6.9,-,N/A,,Clear,170,2013-04-29 19:35:00
2:55 PM,78.8,46.4,32,29.66,10.0,South,5.8,-,N/A,,Clear,170,2013-04-29 19:55:00
3:15 PM,80.6,46.4,30,29.65,10.0,South,4.6,-,N/A,,Clear,180,2013-04-29 20:15:00
3:35 PM,80.6,44.6,28,29.64,10.0,South,5.8,-,N/A,,Clear,170,2013-04-29 20:35:00
3:55 PM,82.4,42.8,25,29.63,10.0,SW,4.6,-,N/A,,Clear,230,2013-04-29 20:55:00
4:15 PM,82.4,44.6,26,29.61,10.0,SE,6.9,-,N/A,,Clear,140,2013-04-29 21:15:00
4:35 PM,82.4,42.8,25,29.60,10.0,South,4.6,-,N/A,,Clear,180,2013-04-29 21:35:00
4:55 PM,82.4,42.8,25,29.59,10.0,South,5.8,-,N/A,,Clear,190,2013-04-29 21:55:00
5:15 PM,82.4,44.6,26,29.58,10.0,SSE,10.4,17.3,N/A,,Clear,150,2013-04-29 22:15:00
5:35 PM,82.4,42.8,25,29.57,10.0,South,13.8,-,N/A,,Clear,180,2013-04-29 22:35:00
5:55 PM,82.4,39.2,21,29.56,10.0,South,8.1,-,N/A,,Clear,180,2013-04-29 22:55:00
6:15 PM,82.4,41.0,23,29.56,10.0,SSE,9.2,-,N/A,,Clear,160,2013-04-29 23:15:00
6:35 PM,82.4,42.8,25,29.55,10.0,South,11.5,-,N/A,,Clear,170,2013-04-29 23:35:00
6:55 PM,82.4,44.6,26,29.55,10.0,South,11.5,-,N/A,,Clear,170,2013-04-29 23:55:00
7:15 PM,80.6,42.8,26,29.55,10.0,South,9.2,-,N/A,,Clear,170,2013-04-30 00:15:00
7:35 PM,78.8,41.0,26,29.55,10.0,South,8.1,-,N/A,,Clear,170,2013-04-30 00:35:00
7:55 PM,77.0,44.6,32,29.55,10.0,SSE,6.9,-,N/A,,Clear,160,2013-04-30 00:55:00
8:15 PM,73.4,46.4,38,29.55,10.0,South,6.9,-,N/A,,Clear,170,2013-04-30 01:15:00
8:35 PM,73.4,48.2,41,29.55,10.0,South,6.9,-,N/A,,Clear,170,2013-04-30 01:35:00
8:55 PM,71.6,48.2,43,29.55,10.0,South,6.9,-,N/A,,Clear,180,2013-04-30 01:55:00
9:15 PM,68.0,50.0,52,29.55,10.0,South,9.2,-,N/A,,Clear,180,2013-04-30 02:15:00
9:35 PM,69.8,50.0,49,29.54,10.0,South,10.4,-,N/A,,Clear,180,2013-04-30 02:35:00
9:55 PM,69.8,50.0,49,29.54,10.0,South,9.2,-,N/A,,Clear,170,2013-04-30 02:55:00
10:35 PM,71.6,51.8,50,29.52,10.0,South,12.7,-,N/A,,Clear,170,2013-04-30 03:35:00
10:55 PM,71.6,53.6,53,29.52,10.0,South,12.7,-,N/A,,Clear,170,2013-04-30 03:55:00
11:15 PM,71.6,55.4,57,29.51,10.0,South,16.1,-,N/A,,Clear,170,2013-04-30 04:15:00
11:35 PM,71.6,55.4,57,29.50,10.0,South,17.3,-,N/A,,Clear,170,2013-04-30 04:35:00
11:55 PM,71.6,55.4,57,29.49,10.0,South,17.3,-,N/A,,Clear,170,2013-04-30 04:55:00